User: anonymous   Login
Location: Caltech
(34.1382°N, 118.1253°W)
Time: 13:34:40
(UTC-07:00)
Language:

Cosmos 1733 Rocket - Orbit

View from above orbital plane
View from above orbital plane
View from above satellite
View from above satellite

Ground track
Ground track

The orbit data is extracted from the following two-line orbital elements,

1 16612U 86018B   17200.60943042 +.00000090 +00000-0 +78673-5 0  9992
2 16612 082.5167 266.0078 0018858 049.6463 107.3766 14.84153947575168
Epoch (UTC): 19 July 2017 14:37:34
Eccentricity: 0.0018858
inclination: 82.5167°
perigee height: 603 km
apogee height: 629 km
right ascension of ascending node: 266.0078°
argument of perigee: 49.6463°
revolutions per day: 14.84153947
mean anomaly at epoch: 107.3766°
orbit number at epoch: 57516

The dashed part of the orbit path shows where the satellite is in the earth's shadow,  

DLR